{"data":{"norad_id":59934,"epoch":"2026-05-25T00:46:34.119840Z","epoch_age_seconds":86436,"freshness":"FRESH","line1":"1 59934U 24106N   26145.03233935 -.00000035  00000+0  82741-5 0  9994","line2":"2 59934  43.0017 258.1850 0001457 272.8536  87.2149 15.27574883112113","mean_motion":15.27574883,"eccentricity":0.0001457,"inclination_deg":43.0017,"raan_deg":258.185,"arg_perigee_deg":272.8536,"mean_anomaly_deg":87.2149,"bstar":8.2741e-6,"rev_number":11211,"period_min":94.267064484066,"perigee_km":482.06474117462,"apogee_km":484.06409526789,"semimajor_km":6861.2014182213,"source":"CELESTRAK","updated_at":"2026-05-25T13:38:19.124270Z"}}